Theta_e
326 326 325 326 327 328 329 328 328 329 331 332 332 330 329 329 328 327 329 330 330 331 333 332 330 330 331 330 330 332 332 334 333 332 333 335 336 335 334 332 331 331 332 331 330 332 330 329 329 330 330 330 329 329 329 328 328 327 327 325 324 324 325 326 325 327 325 323 324 323 324 327 328 327 325 325 326 325 326 327 325 326 323 326 327
324 324 323 324 326 327 328 328 329 328 330 331 331 330 329 329 328 328 330 331 331 332 333 333 333 332 331 330 331 331 332 332 332 333 334 336 336 333 331 332 332 331 331 330 330 331 329 328 328 329 329 329 329 329 329 330 328 327 327 325 326 325 324 327 326 326 322 321 319 318 320 323 325 325 325 326 325 325 325 326 322 323 325 326 325
322 324 322 323 326 327 327 327 328 329 330 331 332 331 330 329 329 328 331 332 332 332 333 333 333 333 332 331 332 331 334 334 334 335 337 336 335 334 331 331 330 331 331 331 329 330 329 329 328 328 328 330 328 328 329 328 327 327 327 325 324 325 326 328 326 320 320 323 322 319 316 316 320 322 324 324 325 323 324 326 327 328 328 325 326
320 322 322 323 325 326 326 326 327 329 329 330 331 332 332 330 329 328 331 333 333 333 333 333 333 332 330 328 331 332 331 333 334 334 335 335 333 332 332 331 330 330 331 331 331 330 328 328 328 328 328 330 328 328 328 326 325 326 326 326 326 323 324 325 327 320 323 323 316 315 316 316 313 316 320 322 324 324 324 325 326 326 328 327 325
321 321 322 323 324 325 325 326 328 328 329 330 330 332 333 332 332 331 330 333 334 333 333 332 332 330 329 329 330 330 331 331 330 330 332 333 333 330 330 330 330 330 331 331 331 329 329 328 328 329 328 329 328 327 326 326 326 327 326 325 325 324 323 325 326 323 323 325 320 316 314 313 313 316 320 320 322 323 324 323 326 326 325 327 326
322 322 322 322 324 325 325 326 328 329 329 329 330 332 332 333 334 334 334 334 334 334 333 331 330 328 327 326 325 325 325 326 326 327 329 330 331 330 330 329 329 330 331 331 331 330 328 328 329 329 328 328 328 327 326 326 326 326 327 326 324 325 325 324 323 325 323 323 322 318 318 315 314 318 319 313 320 321 323 324 324 326 324 326 325
323 323 323 322 323 324 325 325 326 327 326 328 330 331 332 332 334 335 334 334 335 335 334 332 330 329 328 328 327 326 326 327 329 330 330 332 332 329 329 329 330 329 329 330 330 330 329 328 328 328 329 328 329 327 326 326 327 327 328 326 325 325 325 323 324 323 322 323 322 324 322 317 321 319 315 316 314 317 319 318 320 324 324 325 323
321 321 323 324 324 324 323 324 325 325 325 327 327 328 329 329 332 334 335 335 335 335 335 334 331 329 327 327 328 327 327 327 328 329 331 332 331 330 329 329 329 329 329 329 330 331 329 328 328 328 328 328 329 327 326 326 326 328 328 327 326 325 325 324 324 324 322 321 322 322 321 319 322 319 319 318 316 314 314 317 319 320 322 321 321
318 320 321 323 323 323 324 324 324 324 324 324 325 326 327 328 329 330 333 332 332 333 333 333 332 330 328 327 326 327 325 326 329 329 329 331 330 329 328 329 329 329 329 329 329 330 331 330 329 328 328 328 329 327 326 326 326 326 327 327 325 324 324 324 325 324 323 321 320 315 317 317 317 315 319 317 312 312 311 313 311 313 315 315 320
317 319 321 322 322 322 323 322 322 322 324 325 325 325 326 326 324 325 327 330 330 331 332 332 332 331 328 327 325 324 324 325 329 328 328 330 329 328 328 328 329 329 328 328 328 329 330 331 330 328 327 328 329 326 326 326 325 326 327 327 326 324 324 324 324 324 324 321 321 317 313 313 314 314 314 313 313 311 312 313 311 312 311 311 317
316 316 318 319 321 322 321 320 321 322 322 324 324 325 325 324 324 324 326 328 330 331 331 331 332 331 329 328 326 324 324 326 327 327 328 328 328 328 328 327 329 329 328 327 328 329 329 331 329 328 328 329 328 325 325 326 325 325 326 326 326 325 324 323 322 322 323 321 320 320 319 318 317 314 314 314 313 308 310 308 308 312 312 311 314
316 316 316 317 318 319 320 319 320 320 320 321 321 321 322 323 323 323 325 327 329 331 332 332 330 330 330 328 326 325 324 325 327 327 327 327 327 327 328 328 328 328 327 326 326 327 329 330 330 328 327 327 327 326 325 326 325 325 324 325 326 325 324 324 322 322 321 321 320 319 319 320 318 318 317 317 315 312 314 310 309 309 312 309 313
312 313 314 315 316 317 317 317 318 317 317 319 319 320 322 323 323 323 325 326 325 327 330 330 327 327 327 325 324 325 325 326 327 327 328 328 328 327 327 327 327 327 327 327 326 326 328 328 327 326 325 326 326 325 325 325 325 325 324 324 325 324 324 324 323 322 322 322 322 318 318 319 319 317 319 317 314 313 312 308 308 311 308 307 309
310 310 310 310 311 313 315 316 318 317 318 318 318 319 321 322 322 322 322 322 323 324 325 324 325 327 326 326 325 325 325 327 328 328 328 328 328 327 327 328 327 328 328 327 327 327 327 327 327 326 326 326 326 326 325 325 325 325 324 324 324 324 324 323 323 323 322 322 322 320 319 319 317 318 319 317 313 311 309 310 308 306 309 308 306
307 308 308 308 309 310 311 313 314 316 318 318 318 318 320 323 322 321 321 322 323 323 324 324 325 327 326 327 327 326 326 327 326 327 328 328 328 327 327 328 328 328 327 327 325 326 326 326 326 325 325 325 325 325 325 325 325 325 324 324 324 323 324 323 322 323 323 321 320 321 320 318 317 318 319 318 315 313 312 310 310 307 304 305 305
306 305 305 306 307 308 309 309 311 312 314 316 319 318 318 320 321 321 321 322 323 323 323 324 325 325 325 324 325 327 327 326 324 324 326 328 327 327 326 326 327 326 326 325 324 326 325 326 326 326 325 325 325 325 325 325 325 325 325 325 324 325 323 323 322 322 323 322 321 319 319 319 319 319 319 318 315 313 313 312 312 311 307 303 302
304 304 304 304 305 306 306 307 308 309 310 312 315 319 319 317 318 319 319 321 321 322 323 324 325 324 323 324 324 323 324 324 324 324 324 325 325 325 324 324 324 324 325 325 324 324 325 326 326 326 325 325 324 324 324 324 325 325 325 325 325 324 323 323 322 322 323 322 320 320 320 319 319 319 319 318 316 314 313 312 313 312 311 305 301
303 304 304 304 304 304 305 306 306 307 308 310 311 314 319 321 319 319 318 319 321 321 322 323 323 322 322 323 324 323 323 323 323 323 323 323 322 323 321 321 322 324 326 326 324 324 324 328 325 325 324 323 323 323 324 324 324 324 324 326 327 324 323 321 321 322 322 322 320 320 319 318 319 319 319 319 317 315 312 311 310 310 310 307 303
301 302 302 302 302 303 303 304 305 305 307 308 310 312 313 316 320 320 319 320 322 322 323 323 323 323 324 324 323 323 322 323 324 324 323 323 323 322 322 322 323 323 325 325 324 324 324 325 325 324 323 323 323 323 324 324 324 322 323 326 326 324 323 321 320 321 321 322 320 320 318 319 318 319 319 319 318 316 312 311 310 310 310 309 306
300 300 301 301 301 302 303 303 303 304 305 306 308 308 310 311 313 315 320 324 323 322 322 322 322 323 323 324 324 324 323 324 323 323 324 324 323 322 323 322 323 324 324 325 325 324 324 324 324 323 322 322 323 322 323 323 322 322 323 324 325 325 323 321 320 320 322 321 321 320 318 318 318 318 319 319 318 318 314 312 310 309 307 306 306
299 299 299 300 301 301 302 303 303 304 305 305 306 306 307 308 309 312 313 318 322 324 323 322 322 322 322 322 322 323 322 322 323 323 323 323 324 323 323 324 323 323 324 324 324 325 325 324 324 323 322 322 322 321 322 321 321 322 323 324 324 324 322 319 322 321 322 321 321 320 319 318 318 319 319 319 319 318 317 314 311 308 306 305 305
298 299 299 300 300 301 301 302 303 303 303 303 304 304 305 305 307 308 310 313 315 320 323 322 322 322 321 321 321 322 322 322 322 322 322 322 323 322 322 322 322 323 323 324 323 324 324 324 323 322 322 322 322 321 320 320 320 321 322 324 323 323 321 319 321 322 322 323 320 320 320 318 319 319 318 320 320 319 319 317 312 308 306 305 306
298 298 299 299 300 300 300 301 301 301 301 302 302 303 303 304 305 306 307 308 312 315 320 323 323 323 322 322 321 321 322 321 321 321 322 322 323 323 323 321 322 321 321 323 322 323 324 324 323 322 321 320 321 321 320 320 320 321 322 323 323 322 320 320 320 321 323 322 319 319 319 318 319 318 318 320 320 320 319 319 316 312 307 305 304
298 299 299 299 299 299 299 299 299 299 300 300 301 302 302 303 304 304 305 306 309 312 315 319 322 322 322 321 321 321 321 321 321 321 321 321 322 322 322 321 321 320 320 320 321 322 323 323 323 322 320 319 319 320 319 320 320 320 321 321 321 320 319 319 320 320 321 321 320 319 319 319 318 318 317 318 319 320 319 318 317 315 311 307 303
297 297 298 298 298 298 298 298 298 298 299 299 300 300 301 302 303 303 304 306 307 310 313 317 321 321 321 321 321 321 320 321 321 321 321 321 321 322 322 321 320 319 319 319 319 321 322 322 322 322 321 320 320 320 320 319 319 320 320 320 320 320 319 319 319 320 322 320 320 320 320 319 318 318 315 317 318 318 319 317 317 316 314 312 307
296 297 297 296 297 297 297 297 298 298 298 298 299 300 300 301 302 303 303 304 306 308 312 316 319 321 321 321 321 320 319 320 320 321 321 321 321 321 321 321 320 319 317 318 319 319 321 321 321 321 321 320 320 320 321 320 320 319 319 319 320 320 319 319 319 319 321 320 320 320 320 320 319 319 318 316 316 317 316 316 316 315 315 311 308
296 296 296 296 296 296 296 297 297 297 297 297 298 298 299 300 301 302 303 304 305 307 309 312 315 319 319 320 320 320 320 319 320 320 320 321 321 320 321 320 320 319 317 316 316 317 318 319 319 319 319 318 318 319 319 319 319 319 319 319 318 318 318 318 318 319 320 320 321 321 320 320 320 320 318 317 316 315 315 315 315 314 311 309 307
295 294 294 294 294 295 295 295 296 296 297 297 297 298 298 299 299 301 302 303 304 305 306 309 311 313 316 318 319 319 319 319 319 320 320 321 321 320 320 320 319 317 315 315 316 316 314 314 313 313 309 310 311 312 313 316 318 319 318 318 318 318 318 317 317 317 319 320 321 320 320 320 320 320 319 317 317 316 314 313 313 313 309 307 306
292 292 293 293 293 293 293 294 295 296 296 296 296 297 298 298 299 300 301 302 303 304 305 306 307 309 310 315 318 320 319 319 319 320 320 320 320 320 320 319 317 315 314 314 315 313 311 309 307 306 305 305 307 307 307 312 316 317 317 317 318 318 317 317 316 316 316 317 317 316 317 318 320 321 315 314 315 316 316 314 311 312 309 308 305
291 291 291 291 291 292 292 293 293 294 295 296 296 296 297 298 299 300 300 302 303 303 304 304 305 306 307 310 316 317 318 319 319 319 319 320 319 319 318 318 316 314 313 313 311 310 310 308 306 303 302 302 301 301 302 301 307 316 316 318 317 317 317 316 315 315 312 311 311 310 314 318 317 313 307 303 303 307 312 315 313 310 307 307 305
291 290 290 291 291 291 292 292 292 293 295 295 296 296 297 298 299 299 300 301 302 302 302 303 303 304 306 308 311 316 317 318 319 319 318 318 318 317 317 316 313 312 312 311 310 308 306 306 305 303 300 299 298 298 296 295 297 303 314 314 315 315 315 315 315 315 311 308 308 308 307 311 309 308 304 299 297 296 297 297 299 304 308 307 305
289 290 290 290 291 291 291 291 292 293 294 295 295 296 296 297 298 299 300 301 301 301 301 302 303 304 305 306 308 313 317 316 316 317 317 317 316 315 314 313 312 311 310 308 307 305 303 302 301 300 298 297 297 296 292 295 296 300 306 312 312 313 313 313 314 312 309 308 307 307 307 309 307 305 305 305 303 298 296 296 295 295 294 295 299
290 290 290 290 290 290 291 291 292 293 294 295 295 295 295 296 297 299 300 300 300 300 300 301 302 303 303 304 306 310 315 316 316 317 317 316 314 313 311 311 310 309 306 305 303 302 300 299 299 298 296 296 295 295 292 295 297 300 302 308 310 310 311 310 310 309 308 306 305 304 303 303 308 312 309 305 306 305 300 298 298 297 296 294 293
291 291 290 290 290 291 291 291 292 293 294 294 295 295 296 297 297 298 298 298 299 299 299 300 301 302 302 303 304 305 306 308 315 316 316 313 312 311 309 307 306 305 302 300 299 298 297 297 297 296 295 296 295 295 292 296 298 298 301 305 310 310 309 309 309 307 305 304 303 304 303 302 302 305 308 310 311 310 308 305 301 299 297 297 295
291 291 290 290 290 290 291 291 292 293 293 293 294 295 295 295 295 296 297 297 298 298 298 299 299 300 302 302 303 303 304 305 305 311 313 312 311 307 305 304 302 301 299 297 296 295 296 296 295 295 296 295 295 292 293 298 297 299 301 304 309 306 302 300 298 298 298 298 298 299 299 298 298 300 303 308 310 308 306 304 300 298 296 295 295
292 290 290 290 291 291 291 291 293 292 292 293 293 295 295 294 295 296 296 296 297 297 297 298 298 299 300 302 302 302 303 303 303 304 307 309 307 305 302 301 299 298 298 296 295 295 294 294 294 295 294 294 294 292 295 298 297 299 301 306 303 300 298 297 296 296 296 295 295 295 295 295 295 295 296 297 301 305 304 301 298 296 295 295 296
293 293 292 292 292 292 293 293 292 292 292 292 293 295 294 294 295 296 296 296 296 296 296 297 298 298 299 300 301 302 302 302 302 302 301 302 302 301 301 300 298 297 297 296 294 294 294 294 294 294 293 293 294 293 293 295 296 297 300 302 300 299 297 297 296 296 296 296 295 294 293 293 293 293 293 292 294 297 297 297 296 294 295 295 295
294 294 294 293 293 294 294 294 293 293 292 292 292 293 293 293 294 294 295 295 295 295 296 297 297 298 299 299 300 301 301 301 301 301 301 301 301 301 300 300 297 296 295 295 295 295 295 296 295 294 294 294 294 293 292 293 294 295 299 300 299 297 296 295 294 294 295 296 299 300 298 293 292 293 291 292 293 295 294 294 294 293 294 294 293
294 294 293 293 294 294 294 294 293 293 293 292 292 292 293 292 293 293 293 293 293 295 296 296 297 298 299 299 299 300 301 301 301 301 301 300 300 300 300 299 298 297 296 296 296 296 296 296 296 296 298 295 293 294 292 292 292 293 298 299 298 296 294 293 293 293 293 293 293 295 296 295 294 292 291 291 292 294 293 293 293 294 294 293 291
295 294 295 294 295 294 293 293 293 293 293 292 292 292 293 292 292 292 292 293 293 295 296 297 297 297 298 299 299 299 299 300 300 300 301 300 300 299 298 298 297 297 296 296 296 296 295 295 296 296 296 296 294 293 293 292 293 293 295 301 299 297 295 294 294 294 293 293 293 293 294 290 290 290 290 291 291 292 293 293 294 294 294 293 291
294 294 295 294 293 293 292 292 293 294 294 293 292 292 291 291 291 291 291 292 293 295 296 297 297 297 297 298 298 298 298 299 300 300 301 301 300 300 299 298 297 297 297 296 296 296 296 296 296 296 296 297 297 294 293 292 292 293 293 296 299 298 296 296 294 294 293 293 293 293 292 291 290 290 291 291 292 292 294 295 294 293 292 292 291
295 295 295 294 293 293 292 293 293 294 294 293 293 293 292 292 291 291 291 293 293 293 294 295 296 296 297 297 298 298 299 299 299 300 300 300 300 301 300 299 298 297 296 296 296 296 296 296 296 296 296 295 297 297 294 292 292 292 292 293 296 296 296 296 295 294 294 294 293 293 292 291 290 291 291 291 291 292 292 294 291 289 289 291 294
294 294 295 295 293 292 292 292 293 293 294 294 294 293 293 293 292 293 294 294 294 294 293 294 295 295 296 296 297 297 298 299 298 299 299 299 300 300 300 300 299 298 297 296 296 296 295 295 295 295 295 296 295 295 293 293 291 291 291 291 291 292 293 297 295 294 294 294 294 294 294 292 290 291 291 291 292 292 293 291 290 290 291 292 293
294 295 294 295 294 293 292 292 293 293 293 294 294 293 294 293 293 295 295 295 295 294 294 295 294 294 295 295 296 297 297 298 298 298 298 297 298 299 299 299 299 298 297 296 296 296 295 294 294 294 294 295 295 295 293 292 292 290 290 290 290 290 291 295 296 295 294 294 294 293 292 291 291 291 290 290 290 291 291 290 291 291 291 292 293
293 294 294 294 293 293 292 292 293 293 293 293 293 293 293 293 293 294 294 294 294 294 294 294 294 294 294 295 295 295 295 296 297 297 297 297 297 297 297 298 298 298 297 296 295 295 294 293 293 293 293 293 294 294 294 293 292 291 290 290 290 290 290 291 294 294 294 293 291 291 291 291 291 291 291 291 291 291 290 290 291 291 294 293 293
294 294 294 294 293 292 292 292 293 293 292 292 292 292 292 292 293 294 293 293 292 292 293 293 294 294 293 294 293 293 293 294 295 296 296 296 296 296 296 296 297 297 296 296 295 295 294 293 293 293 292 293 293 293 293 293 294 294 292 291 290 291 292 292 293 292 290 290 291 291 291 291 292 293 294 293 292 292 291 291 291 292 293 292 292
292 293 293 293 292 291 291 291 291 292 290 290 289 291 292 292 292 292 292 291 291 291 291 291 292 293 293 292 291 292 291 291 292 293 294 294 294 295 295 295 295 296 295 295 295 294 294 293 293 293 293 293 293 292 292 293 293 293 293 293 294 293 293 293 294 295 294 294 293 293 292 291 291 290 291 291 291 291 292 292 292 292 291 291 290
292 292 292 291 290 288 288 289 289 289 288 288 288 289 291 290 291 292 291 291 291 290 289 290 290 291 292 292 291 289 290 290 289 289 289 291 292 292 291 290 291 293 295 294 295 294 293 293 293 293 293 293 292 292 291 291 291 292 293 293 292 292 292 292 293 293 294 295 294 292 292 293 293 293 292 292 291 291 290 289 290 290 289 290 290
290 290 289 287 287 287 286 287 288 288 287 287 287 289 290 290 291 291 290 291 290 289 289 289 289 289 289 290 290 291 291 290 290 289 289 288 289 290 291 291 291 290 292 294 294 294 294 294 293 293 292 291 291 291 291 288 288 288 288 291 292 291 292 291 291 291 294 293 292 292 291 291 290 288 288 289 289 288 287 288 289 288 288 288 287
288 288 285 284 286 287 286 287 287 287 287 287 287 288 289 290 290 290 290 291 290 289 288 288 288 288 288 288 290 290 291 291 290 290 289 289 287 288 289 290 290 289 289 289 290 292 293 293 291 290 291 292 291 291 288 287 288 288 288 287 287 287 288 290 290 290 291 290 288 288 288 288 288 288 287 286 286 286 286 286 285 286 286 286 286
288 286 284 283 284 286 285 286 287 287 288 287 287 288 289 290 290 289 288 289 288 289 287 288 288 287 287 287 288 288 289 289 289 289 290 289 289 290 288 288 289 289 289 289 289 289 289 289 292 291 290 288 288 288 287 288 288 288 287 287 287 288 289 290 290 290 289 288 288 287 287 287 287 287 286 286 286 285 285 285 285 285 285 284 284
Wind_Speed
6 6 7 6 6 7 7 7 7 6 7 8 9 9 10 10 7 8 5 5 6 6 6 7 7 7 5 7 7 6 6 6 6 5 5 6 7 6 6 5 5 5 5 3 3 3 5 5 4 5 3 4 5 7 7 7 5 5 6 3 7 6 4 3 3 6 8 4 5 4 5 4 4 2 3 2 2 2 3 4 4 3 2 2 2
5 5 5 4 5 7 8 8 9 11 10 10 11 12 12 10 11 10 7 7 7 8 8 8 8 8 7 7 6 5 7 8 6 7 8 6 6 5 4 3 5 8 8 4 3 1 1 4 4 4 4 4 3 4 4 5 5 6 7 5 1 6 4 6 6 7 3 4 5 2 3 3 5 2 3 2 2 2 2 4 2 2 2 2 2
6 7 6 6 7 8 9 9 10 12 11 11 11 11 10 11 10 8 8 8 8 8 9 9 8 6 6 4 6 3 3 4 5 5 6 7 6 6 5 4 5 6 8 7 6 7 8 6 5 4 5 5 5 5 5 6 6 7 8 8 6 1 3 4 6 1 5 4 3 4 1 2 2 2 3 2 2 1 2 4 3 3 2 1 2
11 11 11 9 8 8 8 10 9 6 5 6 7 8 4 4 3 4 5 6 6 8 8 5 5 4 3 4 4 4 3 4 4 4 5 7 6 5 5 5 5 5 7 7 6 6 7 7 5 5 6 6 7 7 6 6 5 6 7 6 8 7 4 5 5 1 4 10 5 1 1 1 2 1 2 2 1 1 2 3 3 3 1 1 2
8 8 9 9 10 10 3 2 4 3 3 3 2 3 2 5 6 4 4 6 6 4 6 6 7 6 5 4 4 3 2 4 5 5 6 6 6 6 6 5 5 5 6 6 6 6 5 6 6 6 6 5 5 6 7 8 7 7 8 7 8 9 8 4 6 2 4 1 5 5 2 0 2 1 3 1 2 2 2 4 3 3 2 2 3
8 9 6 2 2 1 1 1 3 4 4 4 3 4 4 4 6 7 7 6 6 5 5 6 8 8 8 8 8 7 6 7 9 9 7 7 7 5 5 5 5 5 6 6 6 5 6 6 6 6 6 5 5 5 5 4 6 7 7 7 7 5 9 7 7 3 4 2 1 1 2 5 5 4 4 2 2 2 1 2 3 2 3 2 1
1 2 2 2 3 3 3 4 4 4 3 3 0 2 4 6 6 7 7 7 7 5 5 2 4 5 8 8 9 8 9 7 5 6 6 5 5 7 6 5 6 6 6 6 6 6 6 6 6 6 5 5 4 5 5 7 7 7 6 6 6 6 6 8 9 6 2 4 2 2 2 1 7 8 4 3 3 1 0 1 1 2 5 3 3
2 2 3 5 5 5 4 4 3 4 4 4 3 2 3 5 6 5 5 5 4 4 6 4 3 4 5 6 6 7 8 7 7 6 4 4 6 7 7 7 7 6 6 6 5 6 6 6 6 5 5 6 6 6 6 6 5 4 6 6 5 6 7 8 8 6 9 6 1 2 1 2 6 1 4 8 6 7 2 1 1 2 6 4 3
3 1 3 5 5 5 5 3 4 6 4 3 2 3 5 7 8 10 7 4 2 2 5 6 5 4 5 5 5 3 3 3 4 4 5 4 6 6 7 7 7 7 6 6 5 5 5 6 6 6 6 6 5 5 5 5 7 7 7 6 7 6 6 5 7 8 7 7 4 1 4 3 3 1 4 3 4 5 1 3 2 2 2 1 4
12 12 8 6 4 6 6 6 6 4 3 3 3 2 2 2 5 7 9 8 7 5 3 4 4 4 5 5 5 4 3 3 4 5 6 5 6 7 7 6 6 6 6 5 6 5 5 6 6 6 6 6 5 6 6 6 6 6 7 8 7 7 5 6 7 6 7 5 5 5 4 3 3 2 2 3 2 1 6 7 5 6 5 0 2
12 12 11 10 8 7 6 5 2 4 6 8 6 2 1 1 2 2 5 4 7 8 6 7 7 7 7 8 7 7 6 6 6 6 5 5 6 6 6 7 5 6 5 6 6 5 5 6 6 6 5 5 5 6 7 7 7 7 6 5 7 8 7 6 4 4 5 5 5 6 7 9 8 6 7 5 4 3 5 3 3 3 4 5 1
11 11 11 10 11 9 7 7 5 5 6 8 4 3 3 4 4 7 2 2 2 7 8 8 7 7 4 4 2 3 6 5 7 8 6 7 6 6 5 6 6 5 5 5 5 5 6 6 5 5 5 6 7 6 5 5 5 5 5 6 6 6 6 7 5 5 6 5 5 5 6 6 5 6 7 7 7 5 8 7 6 3 3 2 2
12 12 11 11 11 10 9 9 7 7 7 8 8 7 6 5 5 8 5 2 2 3 7 5 3 6 4 7 4 1 4 6 7 7 6 7 6 6 6 6 6 6 6 6 6 6 6 5 5 5 4 5 5 5 4 4 5 5 6 6 6 7 7 8 7 7 8 7 6 5 5 6 6 3 5 6 3 5 7 7 1 3 4 3 1
11 11 11 11 11 10 11 11 8 9 10 9 8 6 3 3 5 7 7 6 4 6 5 3 8 6 4 6 7 7 7 7 6 7 7 6 5 6 7 6 6 7 7 8 7 5 4 5 5 5 4 4 5 5 5 5 5 6 5 6 7 6 6 7 8 7 7 6 5 6 5 6 5 5 6 6 7 7 6 9 7 2 3 5 2
10 10 11 11 12 12 10 10 10 11 12 10 8 7 4 2 2 4 5 4 5 4 1 6 4 4 2 1 4 5 7 7 7 6 6 6 6 6 6 5 6 6 7 7 4 6 5 5 5 5 4 5 4 4 4 4 5 4 4 5 5 5 6 6 6 7 7 6 5 6 6 5 5 6 7 6 7 8 9 8 9 9 3 4 3
11 11 11 12 11 12 11 12 11 11 12 11 9 5 4 3 3 3 2 1 3 2 1 1 3 4 3 2 4 3 5 6 5 5 5 5 6 7 6 6 5 6 7 4 4 6 6 6 5 5 4 4 5 5 5 5 5 5 5 5 6 4 6 7 6 7 7 7 6 4 5 5 5 6 6 6 6 6 7 7 8 10 11 6 2
10 10 11 12 12 12 11 12 12 12 11 11 12 11 6 3 3 5 4 3 4 2 1 4 6 5 7 7 7 6 7 8 8 7 6 5 5 5 6 5 5 5 6 4 5 5 6 6 6 6 5 5 4 4 4 4 5 5 5 5 6 5 6 7 5 6 6 6 5 6 6 5 5 4 4 5 6 6 7 7 8 10 9 10 6
10 11 10 11 11 12 12 11 12 12 13 13 13 13 11 7 5 6 4 2 3 6 6 6 7 8 8 5 4 5 3 1 3 6 5 5 4 4 3 4 6 6 5 4 4 5 5 7 6 6 5 5 5 4 4 5 5 5 5 5 5 5 5 4 5 6 6 6 5 5 4 5 3 5 5 5 6 7 7 6 6 5 8 10 7
12 12 12 12 12 12 12 12 13 12 12 12 12 12 12 13 11 7 6 3 2 3 7 9 8 7 7 7 5 2 2 4 4 5 6 5 5 4 5 5 4 4 5 5 5 5 6 6 6 5 5 5 4 4 5 6 6 6 5 5 5 6 6 6 4 5 5 6 6 6 4 5 4 5 4 4 4 6 6 5 5 5 5 7 8
11 11 12 12 12 13 13 13 13 13 12 11 11 10 11 11 12 13 11 5 3 4 5 5 3 3 6 6 6 6 9 7 5 6 6 6 4 3 4 4 6 5 5 6 6 6 6 7 6 5 5 5 5 5 6 6 6 6 5 5 5 6 6 6 5 4 5 5 6 6 5 5 5 4 4 5 5 5 5 6 6 6 4 4 6
10 11 11 12 12 13 13 12 12 12 11 12 12 12 11 10 11 12 11 12 8 6 6 5 2 3 4 4 6 7 4 3 4 5 4 4 4 3 3 5 4 6 5 5 6 6 6 6 5 5 5 6 7 6 6 6 5 5 5 5 5 6 6 5 5 5 4 5 5 5 5 4 4 6 5 5 5 5 5 5 5 4 5 5 6
10 10 11 11 11 12 12 12 11 11 12 15 13 13 13 13 11 11 11 9 10 9 5 5 3 3 6 4 6 4 5 3 3 4 5 4 4 4 3 3 6 6 7 7 7 6 6 5 4 5 5 5 6 6 6 6 6 5 6 4 5 6 5 5 5 6 5 5 5 5 5 4 5 6 5 5 5 5 5 6 7 7 6 5 4
10 10 10 10 10 11 11 13 12 12 12 13 12 12 11 12 13 12 12 12 9 9 9 5 3 2 6 4 4 4 5 6 6 5 5 4 3 3 3 1 5 6 7 8 8 7 7 6 5 5 4 4 5 6 6 6 6 7 7 6 6 6 6 6 6 6 6 5 5 5 5 5 4 4 4 5 5 5 5 6 6 6 7 6 5
9 8 8 8 9 9 10 11 12 12 13 14 12 12 11 11 12 11 12 14 13 11 11 10 5 3 4 4 5 5 6 7 8 7 7 6 4 3 5 1 6 5 7 6 6 7 6 7 7 5 4 4 4 5 6 6 7 7 7 8 7 6 6 6 7 6 6 6 6 5 5 5 4 5 4 5 5 5 6 6 6 5 6 7 6
8 9 9 9 10 11 11 11 11 11 11 11 13 13 13 12 12 12 13 11 11 12 10 10 9 4 5 5 6 6 7 8 7 7 8 8 7 6 7 6 3 7 5 5 5 6 7 7 8 7 5 5 5 6 6 6 5 6 7 7 7 7 7 7 7 7 8 7 7 7 6 5 5 5 4 5 5 6 6 6 6 6 6 6 4
9 9 10 11 10 9 10 11 10 11 11 11 11 12 12 12 12 11 13 12 10 11 10 10 10 8 2 3 3 4 6 7 6 7 8 8 8 6 7 8 7 9 5 5 6 6 7 8 7 6 6 6 6 6 7 7 6 5 5 6 6 7 7 7 7 6 7 6 7 7 6 6 6 7 6 6 6 7 6 6 6 6 5 5 5
9 10 10 10 10 12 11 11 10 10 10 9 10 11 12 12 13 12 11 10 10 10 9 11 11 9 4 1 1 2 4 5 5 7 8 8 9 8 8 10 8 6 6 5 5 7 6 6 6 5 6 6 6 6 6 5 5 6 6 6 6 6 5 5 5 6 6 7 7 7 6 7 8 8 7 7 7 6 7 7 7 7 6 6 6
9 10 11 11 11 10 11 11 11 11 10 10 10 10 11 12 13 12 11 10 10 10 9 8 8 9 9 5 1 1 2 4 3 4 6 7 8 8 8 7 7 7 7 6 7 7 5 4 4 4 3 4 5 5 5 5 5 6 6 5 6 6 6 5 4 4 5 6 6 5 5 6 7 7 7 7 7 7 6 6 6 6 7 7 6
10 10 9 8 9 9 9 9 10 11 12 12 11 11 11 11 11 12 12 12 11 9 10 9 7 7 8 8 5 1 3 2 3 4 5 6 7 7 7 7 7 6 5 5 5 5 5 4 3 3 3 2 4 5 5 6 7 6 6 7 6 6 6 6 5 4 3 3 3 3 4 5 6 8 11 10 10 8 7 7 6 7 8 8 6
9 9 8 7 7 8 9 10 11 12 13 12 12 12 12 12 13 12 13 13 12 11 9 10 9 9 8 9 8 5 1 5 4 5 6 5 6 5 5 6 6 5 4 5 5 4 6 7 6 4 3 2 2 1 1 4 6 7 7 6 6 6 6 6 6 5 3 3 2 2 2 4 3 6 8 7 6 4 4 4 8 6 6 6 7
8 8 8 8 8 9 10 11 12 13 13 12 12 11 11 12 12 12 13 13 12 12 13 11 10 10 9 8 8 7 4 4 6 5 3 4 4 5 6 5 6 5 5 4 5 5 4 5 7 7 5 2 1 0 3 2 5 8 7 6 7 7 6 5 5 6 5 5 3 4 4 6 7 8 9 13 12 8 9 11 10 5 2 6 9
7 7 7 8 9 9 10 10 11 11 12 12 11 11 11 12 11 12 11 11 12 12 12 13 13 11 9 9 8 8 5 2 2 2 3 3 4 4 4 4 6 7 5 4 4 4 4 4 5 5 5 3 1 4 5 4 4 7 8 6 5 6 6 5 6 6 6 5 5 5 4 4 5 6 7 11 12 10 12 16 15 14 14 13 8
6 7 7 7 7 7 8 9 8 9 10 11 10 10 11 11 11 10 9 11 12 12 12 12 13 14 13 10 8 7 7 4 3 3 5 5 4 4 3 2 5 6 6 5 4 4 3 2 4 6 4 3 2 6 6 4 2 5 7 6 3 4 5 6 6 7 6 6 6 6 5 5 5 9 7 9 11 9 8 15 15 16 17 16 15
7 7 7 7 7 7 7 7 8 9 9 9 9 9 9 9 9 9 11 11 11 12 12 12 13 12 12 11 11 10 9 10 4 5 3 4 4 5 6 5 4 6 7 6 5 5 4 3 3 3 4 4 4 8 8 4 3 9 12 10 6 6 6 6 6 6 6 6 5 6 7 6 4 4 5 7 7 7 6 8 9 9 9 11 13
9 10 9 8 7 7 8 8 9 8 8 9 10 9 9 10 9 10 10 11 11 11 12 12 13 13 12 12 11 10 12 10 9 6 2 4 3 6 7 6 7 7 6 5 5 5 4 4 4 3 4 6 6 11 8 3 7 13 16 12 8 8 8 8 7 6 6 6 5 6 6 6 5 5 4 6 7 6 8 9 10 9 9 8 9
9 7 8 8 8 7 7 7 6 7 8 7 8 8 9 9 8 10 10 10 10 11 12 12 13 13 12 12 10 10 10 11 10 8 5 1 7 5 8 8 8 8 8 7 7 6 6 6 5 5 6 7 7 14 11 7 7 14 15 10 8 9 9 8 8 7 6 6 6 6 7 7 6 6 6 7 6 6 9 10 10 8 8 8 8
8 6 7 6 6 6 7 6 7 7 8 8 7 8 8 9 10 10 10 10 11 12 12 12 12 12 12 11 11 9 10 11 10 10 10 10 6 6 5 4 11 9 9 9 8 7 6 6 6 6 7 7 8 12 13 12 9 9 13 8 9 9 9 9 8 6 6 7 6 5 6 7 7 6 5 7 6 9 9 10 9 9 7 8 7
8 9 8 8 8 8 7 8 8 9 8 7 7 7 7 8 10 10 10 10 11 12 11 11 11 12 11 11 11 9 10 12 12 11 11 10 10 8 6 4 8 12 12 10 9 7 7 8 8 8 6 8 8 12 15 13 12 13 5 10 8 10 8 9 8 7 7 7 8 12 8 7 8 5 6 8 6 8 8 7 8 8 8 8 6
7 7 8 8 8 7 8 9 9 9 9 8 7 8 8 8 8 9 9 10 10 10 11 11 11 10 11 11 10 10 9 10 13 12 11 11 10 8 7 6 7 12 12 11 11 9 8 9 9 8 11 10 9 11 15 15 15 12 8 4 8 10 10 7 8 8 7 7 7 9 11 9 7 7 10 10 10 9 7 6 7 9 9 8 2
7 7 6 6 7 9 10 10 10 9 8 8 7 7 7 7 8 7 8 9 9 9 9 9 9 9 10 10 11 11 11 9 10 12 12 12 10 9 9 8 7 7 12 12 11 10 10 9 9 9 9 9 10 10 13 18 16 15 12 6 4 7 11 8 6 7 8 6 6 6 7 9 10 11 12 12 11 11 9 5 6 8 9 6 0
6 7 8 8 8 8 8 8 7 8 8 7 7 7 8 7 7 8 8 8 7 7 8 9 9 9 9 10 10 11 12 11 9 9 11 10 11 11 9 9 8 6 10 13 13 11 11 8 9 10 10 10 9 10 14 19 19 18 17 11 8 8 6 5 7 7 7 7 6 6 5 7 10 11 12 13 13 12 10 8 7 7 4 4 4
5 6 7 8 8 9 9 10 8 9 8 7 7 8 7 7 8 9 7 6 6 7 7 7 9 9 9 9 10 10 11 10 10 8 10 12 9 10 10 9 8 7 10 13 11 10 10 9 8 9 10 10 11 13 11 17 19 19 18 17 9 9 8 6 6 6 6 6 6 5 5 7 11 12 12 13 13 13 12 9 8 9 9 10 8
6 7 8 7 7 8 9 8 8 7 7 6 7 8 8 8 9 7 6 6 6 6 6 7 7 9 9 9 9 10 9 9 9 9 9 9 9 11 10 9 9 9 10 12 12 9 9 9 9 9 8 9 9 10 15 14 17 18 18 17 16 12 13 9 8 6 5 6 5 7 6 10 14 14 14 14 13 14 11 9 11 12 12 12 9
5 5 6 7 7 8 8 9 8 8 7 7 6 7 7 8 7 5 7 7 7 6 6 7 7 8 8 8 9 9 9 9 10 9 10 10 9 8 9 9 8 8 7 10 9 8 8 9 9 9 9 9 8 7 12 15 13 16 16 17 17 16 13 8 7 6 5 5 6 8 10 16 17 18 18 17 16 14 11 13 13 13 13 11 8
5 7 7 5 6 7 7 8 9 8 8 7 5 5 6 7 7 5 6 6 6 6 6 6 7 7 8 7 8 8 9 9 9 9 9 9 9 8 8 6 7 7 8 10 9 8 8 7 8 8 7 7 7 7 7 10 14 15 15 15 16 16 14 12 9 6 7 7 9 12 14 15 16 17 17 17 15 15 16 14 14 13 11 8 8
5 6 7 7 7 7 7 7 9 8 8 7 6 4 5 6 6 6 6 6 6 7 6 6 5 6 7 7 7 7 8 9 8 7 8 7 7 7 7 6 6 7 7 8 7 7 6 7 7 6 6 6 6 7 7 8 8 9 10 13 15 15 16 16 14 11 12 12 12 13 15 15 14 12 11 10 9 10 15 16 15 13 8 7 6
5 5 5 7 6 7 7 7 7 8 7 7 6 5 4 5 6 6 5 5 6 6 6 6 6 5 5 6 7 6 6 7 8 7 7 7 6 6 7 7 6 7 7 7 7 6 6 6 6 5 5 5 6 6 6 6 7 7 7 6 7 9 13 13 9 8 9 9 11 11 11 12 13 16 15 12 11 11 11 9 8 8 7 7 6
3 4 4 4 4 4 5 5 6 7 6 5 4 5 5 5 6 6 5 6 7 6 6 6 6 5 5 5 5 7 8 6 7 7 7 7 7 6 7 6 5 5 5 5 5 5 6 5 5 5 5 5 5 5 5 6 6 6 5 4 5 7 8 8 8 7 7 6 7 6 8 7 8 9 8 8 8 8 8 7 7 6 6 6 6
7 7 5 4 3 4 4 4 6 6 5 5 4 4 5 6 6 5 5 6 7 6 6 7 6 5 5 4 5 5 5 5 6 7 6 6 5 6 5 5 5 3 2 3 5 5 4 3 3 3 3 4 4 4 4 3 4 4 4 4 5 6 7 6 5 6 5 5 5 6 6 7 7 8 7 7 7 8 7 7 7 6 6 6 6
5 4 3 4 3 3 4 4 5 5 4 5 5 5 5 4 5 5 4 6 5 7 7 7 5 6 4 5 5 4 4 4 5 5 5 6 8 9 7 5 5 8 12 11 6 3 3 2 4 3 2 2 3 1 3 5 6 6 7 8 5 4 4 6 6 6 6 7 5 6 5 6 6 6 7 7 6 6 6 6 6 5 5 6 7
5 4 5 4 4 4 4 5 5 5 5 5 4 5 5 5 4 4 4 4 5 6 6 7 6 6 5 3 3 3 4 4 3 4 4 4 5 8 12 12 9 9 11 11 12 11 11 8 5 3 3 5 3 1 1 2 1 3 5 4 4 6 8 9 8 8 7 6 6 6 5 5 5 6 6 6 5 6 5 6 5 6 6 6 6
Wind_Direction
173 187 191 184 171 176 182 185 185 180 188 187 187 196 204 203 206 223 203 198 172 152 157 154 162 166 176 185 192 185 183 176 172 180 206 209 195 201 207 194 143 136 168 130 169 167 139 138 153 160 170 157 149 152 154 173 161 147 136 124 133 128 126 135 129 128 120 88 73 66 54 38 72 68 73 66 104 115 136 133 122 115 107 96 79
136 180 199 175 167 178 184 190 185 184 193 186 193 199 201 199 206 207 197 196 190 178 175 179 184 188 180 190 184 172 182 189 178 179 195 198 198 208 209 168 143 153 154 175 125 93 71 142 197 167 163 149 154 136 140 160 155 144 136 120 126 148 144 159 160 133 130 153 139 105 40 55 79 82 117 79 70 76 89 101 79 99 93 87 84
171 195 196 191 180 182 193 199 200 199 184 188 198 202 203 204 214 209 204 198 195 187 182 189 188 181 181 174 180 165 186 183 175 172 179 183 196 190 181 158 141 156 151 170 175 180 183 182 179 169 164 154 147 149 152 168 169 157 157 146 137 110 107 162 176 178 133 126 101 90 111 81 64 79 56 64 96 64 50 77 87 83 98 85 95
194 192 191 193 196 186 198 207 208 193 187 197 207 223 230 245 280 281 265 236 209 197 193 180 165 150 138 125 161 163 170 169 167 167 178 178 186 162 165 150 137 140 155 169 180 189 179 176 166 170 176 181 165 158 162 175 168 166 155 150 145 147 154 178 199 224 154 140 148 135 136 78 94 317 119 48 32 86 98 95 109 107 95 105 59
201 197 196 195 197 201 183 356 358 3 27 12 320 280 256 230 235 232 257 278 272 231 183 155 146 139 136 111 125 117 128 168 169 195 188 184 177 152 161 153 152 144 169 181 184 186 178 169 166 172 180 183 171 164 171 179 179 173 166 154 172 160 164 164 195 191 199 265 134 132 84 33 225 127 108 38 57 102 122 142 139 128 122 125 118
212 210 205 196 197 56 121 42 33 33 35 1 344 308 328 296 254 224 210 221 244 249 207 165 165 161 160 162 167 178 190 188 194 190 184 183 176 142 143 155 141 168 199 190 187 174 174 170 167 170 180 176 178 177 167 167 179 170 175 171 175 184 162 161 180 211 219 231 340 62 138 168 163 166 138 201 32 1 329 128 159 154 142 163 139
323 317 7 20 14 24 37 27 33 52 44 8 15 287 305 309 287 260 236 212 214 221 224 209 166 170 175 182 184 190 200 209 199 193 190 175 137 144 149 138 169 186 197 195 185 177 170 169 171 179 176 172 171 163 180 191 187 181 167 172 185 164 157 166 178 180 177 262 275 347 30 89 140 145 181 74 155 204 349 163 186 176 142 222 183
84 37 40 49 57 54 71 50 20 29 28 33 13 343 296 307 314 285 264 261 234 192 201 209 195 173 185 194 196 200 207 206 191 191 171 154 148 144 144 161 178 193 207 198 185 172 169 171 176 177 172 179 180 185 189 194 186 175 173 172 167 175 171 171 175 170 175 201 179 240 54 138 168 110 153 169 157 158 153 10 34 181 148 217 187
34 55 39 58 74 68 98 98 38 31 32 58 26 347 357 355 353 346 328 321 320 248 201 201 192 174 183 197 213 220 213 206 185 178 173 157 152 141 150 158 184 196 200 193 189 172 172 179 182 181 179 181 189 191 186 186 188 176 168 167 178 182 183 180 173 181 183 188 150 107 99 114 126 58 131 109 139 145 105 167 155 3 74 112 135
34 35 34 41 67 61 47 48 39 7 320 248 185 125 98 79 29 11 335 342 327 294 257 223 206 161 173 193 199 193 182 183 180 175 179 172 162 151 158 168 174 190 198 200 192 178 174 185 189 183 183 178 186 189 182 186 192 187 185 183 179 179 182 177 188 185 190 168 169 145 120 109 95 91 138 132 55 62 162 176 167 155 156 167 117
38 37 33 35 43 58 63 61 19 343 320 320 355 31 77 36 76 209 219 216 264 271 250 233 214 204 188 184 188 179 179 177 180 183 172 168 175 163 158 172 180 186 188 200 195 177 180 192 188 185 174 174 183 182 188 189 190 188 185 183 184 181 176 180 186 183 178 170 167 165 159 166 169 170 178 185 157 142 92 104 128 161 155 125 184
34 36 33 29 33 28 24 20 16 7 327 303 307 334 313 277 260 233 200 165 239 275 248 227 226 231 206 152 168 153 160 182 191 188 184 172 181 170 166 161 179 182 190 195 191 179 181 192 192 186 166 171 191 189 186 189 182 177 178 187 189 184 172 174 177 176 180 185 182 180 175 178 178 170 176 169 164 168 157 156 152 129 89 84 122
31 27 25 26 28 25 23 16 0 337 317 323 334 347 358 349 310 289 289 46 27 337 263 255 359 326 343 74 87 161 227 197 197 197 190 189 179 176 169 175 167 180 196 200 199 182 182 178 192 193 172 185 193 184 185 183 178 181 188 192 183 180 179 176 178 186 181 183 191 187 179 184 191 178 154 157 132 130 138 134 132 139 135 119 86
26 24 23 21 17 13 16 11 359 342 336 330 329 337 0 354 346 338 355 4 5 19 60 128 229 213 176 156 164 168 194 213 199 199 197 191 184 183 180 181 183 191 195 210 196 176 173 185 195 197 181 183 197 197 183 182 182 188 191 192 189 185 172 180 184 179 181 191 165 167 186 191 182 166 160 144 147 136 150 153 142 91 113 127 104
23 22 20 15 13 11 7 3 1 354 346 341 331 320 311 332 3 327 325 6 14 35 183 200 242 2 26 37 199 198 190 200 197 207 197 190 188 187 185 183 189 198 205 215 174 170 175 187 208 203 189 189 200 199 180 177 184 186 192 192 183 177 180 174 180 174 181 182 176 180 179 179 173 171 162 170 161 165 155 157 143 130 86 107 130
15 15 13 12 12 7 5 0 357 356 350 345 331 301 286 280 267 261 249 179 83 73 72 351 12 5 16 307 279 241 219 189 183 199 208 200 191 191 186 185 193 201 221 199 183 175 169 187 201 205 185 185 195 190 178 178 180 185 182 179 183 175 174 179 183 181 188 183 179 167 160 189 175 173 176 168 170 162 156 158 156 151 145 152 121
17 14 10 6 6 4 2 358 355 352 348 341 339 337 321 289 264 258 247 181 160 166 222 162 161 174 222 217 203 223 214 188 182 182 192 196 194 195 186 182 183 207 218 194 193 186 177 186 195 201 188 183 183 184 174 172 173 181 183 177 179 176 175 186 173 183 192 179 173 172 179 174 183 173 166 163 160 154 165 166 168 162 161 144 156
10 15 13 11 7 3 0 355 354 347 348 345 342 340 337 325 287 288 291 265 162 154 191 223 190 193 212 214 216 226 260 277 176 170 173 182 194 186 166 162 193 210 218 202 198 195 195 195 190 197 184 173 182 175 167 168 173 183 186 185 177 167 175 175 181 178 182 178 172 171 164 167 171 168 175 164 164 165 162 171 167 156 154 159 161
7 7 7 6 3 1 357 352 349 345 347 344 342 344 347 353 340 311 309 316 280 237 205 213 206 201 194 195 189 171 193 213 167 158 153 176 196 185 180 187 188 209 221 213 203 204 204 201 190 189 172 173 169 168 165 173 180 180 183 177 169 169 172 180 183 176 176 170 174 176 166 165 167 169 156 155 162 162 167 162 161 152 184 162 157
6 7 6 2 359 356 356 352 350 346 341 342 341 346 350 347 349 351 339 311 309 287 272 268 256 233 195 179 169 179 200 209 174 151 153 163 184 195 188 178 197 195 218 216 215 207 205 201 188 177 167 163 167 167 172 174 179 183 175 175 173 171 172 176 175 178 166 175 171 174 176 172 168 154 159 161 163 170 162 162 164 163 152 136 141
10 8 3 0 357 355 355 352 349 343 342 343 348 348 345 348 349 344 343 342 327 278 278 281 311 284 273 207 181 195 176 186 173 160 146 166 160 171 203 201 173 199 193 211 216 216 211 203 180 174 172 172 169 169 172 169 174 174 177 175 167 174 171 169 164 171 172 169 173 172 176 179 159 163 169 161 162 159 157 169 148 153 156 153 147
16 11 6 1 1 357 355 353 348 348 349 351 345 345 348 350 344 343 340 348 343 338 294 268 266 239 239 234 221 190 160 179 165 139 152 171 170 166 182 211 196 199 178 196 202 206 210 209 192 180 175 170 167 164 163 164 169 169 171 175 169 172 169 164 169 173 173 172 167 170 175 172 173 172 165 169 169 161 159 156 168 179 170 178 176
20 16 11 5 360 359 355 353 351 353 348 345 345 347 345 344 341 341 343 345 344 340 339 324 266 226 252 232 212 198 178 171 161 149 154 171 183 149 97 262 245 200 192 188 186 189 199 206 201 189 171 170 168 167 168 168 175 174 172 176 179 176 172 171 176 179 176 165 167 179 182 172 166 168 176 172 164 172 173 172 173 176 176 185 189
26 12 3 1 359 358 353 350 352 351 351 350 345 343 342 343 341 340 343 344 347 347 340 335 318 236 229 231 218 214 188 180 177 170 157 155 150 154 109 53 282 263 197 195 176 179 189 198 202 194 168 168 171 175 173 179 179 178 177 177 179 180 176 177 178 175 175 176 181 180 190 179 173 177 172 164 172 168 176 182 175 178 173 187 194
19 12 3 1 4 4 359 351 347 348 349 347 347 346 346 345 343 345 341 343 345 344 330 327 320 277 184 197 211 210 211 191 188 171 160 154 158 163 137 150 245 260 227 173 186 178 183 194 199 195 177 172 183 183 184 185 187 189 182 176 179 179 181 179 180 180 182 183 181 191 192 182 173 185 175 171 169 175 181 174 185 181 181 179 181
19 11 10 8 3 359 356 353 347 345 347 347 345 346 345 345 344 346 343 345 342 338 336 332 335 316 287 206 206 229 230 210 183 166 155 156 156 155 156 164 176 236 220 184 176 186 185 192 198 192 184 178 180 188 193 192 184 184 189 185 179 181 183 181 181 180 182 185 187 193 191 180 179 186 193 178 176 179 174 181 189 191 185 160 178
20 22 17 11 6 0 353 351 347 345 346 347 348 348 349 347 346 349 343 340 338 340 333 346 345 340 336 23 200 226 248 239 201 171 161 161 160 160 170 176 174 215 210 182 194 185 193 189 191 189 186 175 180 187 195 193 183 180 187 185 179 182 181 183 186 183 184 187 193 194 185 179 183 191 187 180 177 177 174 188 190 189 182 165 179
25 25 23 17 8 1 356 349 347 348 347 351 352 354 352 352 350 345 339 340 345 344 341 335 343 347 344 322 140 145 230 245 241 191 178 169 163 169 182 180 161 197 209 186 189 190 181 168 166 167 154 152 161 175 187 192 186 182 177 185 185 176 174 182 185 187 188 191 192 184 178 181 187 191 185 181 173 178 182 187 199 182 171 164 175
21 21 17 10 1 353 350 350 348 350 355 354 354 354 356 354 355 350 349 346 342 348 343 345 339 345 337 332 322 94 150 200 230 203 183 179 177 180 181 173 164 188 192 186 175 163 145 128 107 117 122 124 148 168 178 182 186 189 176 180 184 180 175 177 178 181 184 184 176 166 177 186 193 191 188 177 184 181 176 190 203 186 171 174 168
20 16 12 4 358 356 357 356 357 358 357 358 357 358 357 358 356 354 354 350 347 349 354 347 353 347 341 336 331 325 240 173 210 210 198 186 176 180 189 175 168 168 165 154 156 159 157 156 143 119 105 111 116 135 185 218 210 187 181 183 180 181 180 175 165 143 112 92 91 84 85 107 112 66 41 23 358 252 193 191 177 190 176 169 169
18 13 9 6 4 4 2 1 360 359 358 358 358 355 357 359 357 358 356 354 354 349 349 355 357 353 345 341 332 315 274 222 199 205 207 184 177 182 193 181 147 149 151 156 151 148 154 154 149 144 131 109 52 335 334 262 242 221 187 182 183 182 178 167 151 142 137 117 84 78 74 68 72 77 70 58 43 20 89 78 75 79 117 171 166
16 12 12 11 10 6 4 359 357 356 356 0 356 356 0 360 357 359 355 353 360 356 355 352 352 359 0 347 331 312 281 267 290 227 194 194 185 183 198 176 149 142 135 131 140 137 140 137 125 121 116 108 66 353 348 325 271 227 194 178 170 167 162 139 133 129 126 119 107 88 71 85 99 115 117 89 66 41 79 84 81 75 71 61 68
13 10 8 7 2 359 358 355 356 353 354 352 353 358 1 356 358 356 354 3 3 4 0 359 355 354 358 354 329 323 310 261 199 190 183 178 172 165 141 172 159 134 119 118 114 110 104 98 124 125 104 67 45 355 348 343 261 207 150 120 104 119 116 120 122 124 123 122 118 103 89 62 71 97 105 110 113 101 78 84 82 77 65 64 64
8 3 1 356 354 356 354 354 353 350 349 342 351 358 353 355 359 1 8 6 8 7 6 3 357 358 356 355 351 346 348 346 304 225 190 129 152 148 109 82 78 87 99 98 88 80 56 53 52 76 88 51 36 341 336 340 161 129 99 92 90 83 79 80 87 96 103 108 114 121 113 94 70 82 108 116 116 122 114 86 71 62 61 52 52
9 1 360 355 351 352 357 360 357 351 345 347 348 352 349 359 357 6 11 10 10 8 12 6 3 356 354 357 359 3 360 355 352 334 247 142 126 102 92 91 85 81 80 79 83 74 60 51 43 39 62 48 14 351 350 58 129 108 98 96 90 85 80 71 65 65 75 82 85 90 94 99 89 78 70 116 126 129 107 96 82 68 61 54 51
16 2 359 358 353 354 355 355 352 358 350 351 348 343 356 352 351 15 11 11 9 15 15 8 6 0 357 354 357 10 9 8 7 9 0 112 119 117 120 112 89 69 69 75 55 54 52 48 38 43 61 45 16 10 26 48 115 106 101 98 94 94 92 87 75 70 69 65 67 78 92 87 85 80 57 91 113 117 102 95 88 80 71 60 51
8 3 2 356 352 359 356 5 8 6 1 351 346 352 355 355 7 11 13 11 14 17 11 7 6 2 359 355 355 7 28 20 18 26 31 21 23 86 91 100 103 88 75 59 55 52 48 53 50 48 62 56 37 19 31 35 16 93 101 99 102 96 94 89 81 75 71 70 67 66 77 90 82 72 60 89 107 111 98 96 96 86 76 66 45
7 5 5 3 359 360 5 15 11 7 4 359 359 360 359 4 5 5 9 10 16 12 4 6 6 3 0 359 359 5 29 38 31 32 34 38 35 11 35 57 95 103 83 66 52 37 44 57 55 50 52 68 53 32 38 34 40 11 51 114 108 103 92 91 88 68 66 63 58 66 73 73 77 70 67 77 82 98 99 103 105 99 81 72 49
14 7 359 355 356 1 10 12 11 11 359 4 7 10 11 6 3 359 2 12 11 2 359 357 359 1 4 5 3 8 18 43 52 39 35 41 37 32 17 35 86 94 88 84 70 50 32 39 47 51 50 60 58 42 39 45 36 34 34 68 108 110 102 98 99 87 71 71 60 50 58 67 78 80 75 72 74 90 98 103 108 94 87 75 38
2 5 353 351 0 11 11 8 7 3 358 3 5 14 15 10 1 356 4 6 2 358 349 345 348 359 8 12 12 12 15 22 48 64 56 44 38 41 28 28 19 71 95 90 83 73 55 34 32 37 47 44 58 51 49 50 46 41 39 53 30 102 118 114 99 102 95 74 63 60 50 53 71 75 76 75 74 83 98 98 93 94 98 91 187
356 352 352 2 359 3 2 360 360 357 2 360 2 15 13 8 4 6 0 347 341 348 357 351 346 355 7 16 15 18 18 18 22 57 68 64 63 43 32 36 21 18 80 83 80 79 73 51 38 37 39 42 43 60 54 59 55 49 44 43 64 49 47 82 106 95 93 92 80 67 62 51 70 77 77 74 74 74 81 83 78 89 86 133 133
358 358 8 360 353 354 354 353 353 356 360 358 1 15 12 12 13 6 348 335 347 350 353 357 356 354 1 11 18 18 23 22 19 15 72 74 57 67 59 36 35 33 55 74 70 69 72 67 53 45 41 35 33 40 60 59 62 58 52 47 54 50 45 52 50 83 85 79 82 76 65 65 76 77 76 76 75 76 78 81 87 103 106 106 99
356 355 352 2 350 351 347 345 343 352 356 357 2 10 10 20 20 360 351 2 0 1 358 1 360 0 359 2 8 21 25 25 25 31 36 54 78 76 59 50 48 42 49 61 62 55 56 57 53 44 40 34 32 30 44 54 60 63 60 58 54 52 44 56 63 41 48 85 82 85 80 79 77 74 72 71 72 73 71 81 93 89 90 90 90
335 333 331 346 346 342 343 337 343 348 354 355 0 2 2 13 8 347 14 9 7 5 9 6 2 1 2 2 5 10 21 26 26 27 42 45 35 45 73 69 54 45 50 61 57 49 51 52 51 44 34 30 24 29 33 42 47 54 62 61 60 55 51 57 65 65 25 42 74 82 93 89 84 81 75 69 65 64 74 72 72 74 70 68 72
325 318 322 332 336 328 330 334 333 341 345 352 349 2 2 359 335 350 14 16 11 11 14 11 5 1 2 358 7 14 16 21 22 22 43 43 42 38 52 40 76 72 57 59 56 46 46 47 51 45 37 29 20 23 25 29 38 47 51 59 64 64 57 54 60 49 62 68 83 87 82 80 81 80 78 75 68 62 63 62 62 60 61 60 61
328 324 329 324 326 330 334 335 329 338 346 344 339 356 9 331 327 350 358 15 23 17 13 9 12 11 5 3 9 11 17 17 18 25 33 33 47 48 50 45 51 55 54 57 58 61 52 51 53 52 48 40 30 25 23 20 25 37 42 46 60 70 73 70 75 79 78 74 72 73 72 69 66 70 71 70 72 68 61 57 53 53 56 56 56
308 305 323 326 334 335 337 339 332 333 344 339 338 339 345 331 343 353 360 10 24 17 13 11 11 13 20 20 20 9 12 18 15 12 24 31 30 44 53 44 39 44 47 46 47 46 56 56 62 57 57 48 42 39 26 22 19 33 33 31 50 62 73 78 72 69 72 71 63 64 77 80 83 75 74 73 70 63 59 53 52 51 55 57 57
295 305 328 326 345 353 351 352 339 329 336 329 338 329 339 343 349 360 2 21 23 14 15 15 11 8 27 29 29 23 26 29 23 23 15 18 24 39 55 44 32 32 63 67 52 47 45 46 41 38 46 46 47 41 35 27 19 23 26 37 56 68 74 83 82 66 65 66 71 66 60 58 67 67 65 64 60 61 61 59 56 54 54 54 62
331 336 343 338 329 355 3 359 343 329 336 328 322 332 340 353 346 355 5 28 20 11 16 25 18 22 25 21 30 37 43 44 44 39 37 22 12 14 34 47 31 5 2 80 98 66 62 62 61 48 74 78 37 37 13 4 13 25 29 46 60 68 76 76 94 111 96 68 67 61 59 61 64 72 68 68 66 67 61 56 55 48 45 49 50
318 314 339 347 340 3 12 7 344 337 350 351 331 339 345 358 352 356 8 38 27 22 17 13 15 28 22 33 31 29 38 56 50 45 47 53 46 50 37 52 40 42 56 50 60 81 78 108 94 42 354 94 125 114 357 4 5 20 38 48 57 70 99 121 104 91 103 86 68 71 54 66 68 76 75 72 70 71 71 60 51 44 49 53 49
325 342 340 329 348 5 7 9 348 341 8 11 358 344 348 352 1 349 5 40 40 39 21 7 14 19 16 37 60 55 34 51 55 59 54 60 58 41 44 46 56 66 69 67 65 64 58 43 60 85 24 29 35 6 291 279 58 74 73 76 92 116 124 126 134 104 56 79 91 83 73 69 73 78 81 80 82 83 82 83 68 57 51 48 47